Location: Gull Harbor
(47.1000°N, 122.9000°W)
Time: 00:47:21
(UTC-07:00)

Envisat - Pass Details

Date: 29 March 2019
Orbit: 764 x 766 km, 98.1° (Epoch: 17 October)

Event Time Altitude Azimuth Distance (km) Brightness Sun altitude
Rises 20:39:29 0° 197° (SSW) 3,217 6.2 -11.2°
Reaches altitude 10° 20:42:06 10° 209° (SSW) 2,297 5.6 -11.7°
Maximum altitude 20:46:22 27° 266° (W) 1,445 5.2 -12.3°
Drops below altitude 10° 20:50:40 10° 324° (NW) 2,313 6.4 -13.0°
Sets 20:53:20 0° 337° (NNW) 3,244 6.9 -13.5°
